Pagina principale
METAR-TAF:

METAR-TAF

Aeroporti :

Aeroporto di Salerno-Costa d'Amalfi

Salerno, Italia

latitudine: 40-37N, longitudine: 014-55E, altezza: 40 m

Osservazione

Il bollettino è stato emesso 1 ora e 8 minuti fa, alle 11:50 UTC
Vento 2 kt da direzioni variabili
Temperature 15°C
Umidità 100%
Pressione 1023 hPa
Visibilità: 7000 m
Nubi sparse ad un'altezza di 2500 ft
Cielo coperto ad un'altezza di 4000 ft

METAR: LIRI 061150Z VRB02KT 7000 SCT025 OVC040 15/15 Q1023

Ora: 13:58 (12:58 UTC)


TAF: mancante

Osservazioni e previsioni meteorologiche di più di 4000 aeroporti (messaggi METAR e TAF).

Le stazioni disponibili sono rappresentate dai dischi gialli e rossi sulla carta.

Puntare il mouse per vedere il nome della stazione.

Clicca sopra per visualizzare le osservazioni e previsioni meteorologiche.

Per cambiare la mappa : fare clic sui pulsanti verdi con una croce nera per ingrandire, il pulsante verde con un trattino per diminuire, o sulla freccia verde per le mappe adiacenti.


METAR-TAF: